| time (UTC) | temp F | wind direction | speed MPH | gust MPH | rain 1hr in | rain 24hr in | rain mn in | humidity % | barometer mb |
| 20260507220620 | 65 | 258 | 4.0 | 5.0 | 0.00 | 0.00 | 0.00 | 78 | 1018.2 |
| 20260507220117 | 64 | 250 | 7.0 | 10.0 | 0.00 | 0.00 | 0.00 | 79 | 1018.1 |
| 20260507215613 | 66 | 235 | 6.0 | 10.0 | 0.00 | 0.00 | 0.00 | 77 | 1018.1 |
| 20260507215111 | 67 | 272 | 3.0 | 8.0 | 0.00 | 0.00 | 0.00 | 75 | 1018.2 |
| 20260507214608 | 66 | 238 | 4.0 | 7.0 | 0.00 | 0.00 | 0.00 | 76 | 1018.2 |
| 20260507214104 | 67 | 254 | 3.0 | 5.0 | 0.00 | 0.00 | 0.00 | 76 | 1018.3 |
| 20260507213601 | 65 | 289 | 3.0 | 5.0 | 0.00 | 0.00 | 0.00 | 77 | 1018.3 |
| 20260507213058 | 67 | 272 | 4.0 | 5.0 | 0.00 | 0.00 | 0.00 | 75 | 1018.6 |
| 20260507212554 | 66 | 252 | 2.0 | 3.0 | 0.00 | 0.00 | 0.00 | 79 | 1018.6 |
| 20260507212051 | 64 | 249 | 3.0 | 7.0 | 0.00 | 0.00 | 0.00 | 81 | 1018.6 |
| 20260507211547 | 65 | 259 | 6.0 | 7.0 | 0.00 | 0.00 | 0.00 | 77 | 1018.6 |
| 20260507211043 | 65 | 242 | 1.0 | 10.0 | 0.00 | 0.00 | 0.00 | 79 | 1018.7 |
| 20260507210541 | 63 | 243 | 3.0 | 10.0 | 0.00 | 0.00 | 0.00 | 82 | 1018.8 |
| 20260507210038 | 64 | 238 | 3.0 | 5.0 | 0.00 | 0.00 | 0.00 | 81 | 1018.7 |
| 20260507205534 | 65 | 246 | 8.0 | 10.0 | 0.00 | 0.00 | 0.00 | 80 | 1018.8 |
| 20260507205031 | 64 | 264 | 6.0 | 10.0 | 0.00 | 0.00 | 0.00 | 81 | 1018.9 |
| 20260507204527 | 65 | 228 | 5.0 | 11.0 | 0.00 | 0.00 | 0.00 | 81 | 1018.9 |
| 20260507204025 | 64 | 258 | 4.0 | 8.0 | 0.00 | 0.00 | 0.00 | 81 | 1018.9 |
| 20260507203523 | 63 | 276 | 3.0 | 5.0 | 0.00 | 0.00 | 0.00 | 82 | 1018.8 |
| 20260507203020 | 65 | 281 | 6.0 | 10.0 | 0.00 | 0.00 | 0.00 | 80 | 1018.8 |
| 20260507202515 | 66 | 246 | 2.0 | 5.0 | 0.00 | 0.00 | 0.00 | 80 | 1018.9 |
| 20260507202012 | 65 | 258 | 1.0 | 5.0 | 0.00 | 0.00 | 0.00 | 78 | 1018.9 |
| 20260507201508 | 65 | 244 | 5.0 | 8.0 | 0.00 | 0.00 | 0.00 | 79 | 1019.0 |
| 20260507201004 | 64 | 235 | 0.0 | 4.0 | 0.00 | 0.00 | 0.00 | 81 | 1019.0 |
| 20260507200459 | 65 | 251 | 4.0 | 5.0 | 0.00 | 0.00 | 0.00 | 79 | 1018.9 |
| 20260507195955 | 65 | 238 | 1.0 | 4.0 | 0.00 | 0.00 | 0.00 | 78 | 1019.0 |
| 20260507195453 | 65 | 256 | 3.0 | 8.0 | 0.00 | 0.00 | 0.00 | 79 | 1019.1 |
| 20260507194950 | 65 | 247 | 5.0 | 10.0 | 0.00 | 0.00 | 0.00 | 79 | 1019.1 |
| 20260507194447 | 63 | 269 | 3.0 | 8.0 | 0.00 | 0.00 | 0.00 | 81 | 1019.3 |
| 20260507193942 | 64 | 251 | 1.0 | 3.0 | 0.00 | 0.00 | 0.00 | 79 | 1019.1 |
| 20260507193440 | 62 | 245 | 2.0 | 5.0 | 0.00 | 0.00 | 0.00 | 85 | 1019.3 |
| 20260507192937 | 63 | 267 | 5.0 | 7.0 | 0.00 | 0.00 | 0.00 | 81 | 1019.2 |
| 20260507192432 | 64 | 245 | 2.0 | 4.0 | 0.00 | 0.00 | 0.00 | 80 | 1019.2 |
| 20260507191930 | 63 | 254 | 3.0 | 4.0 | 0.00 | 0.00 | 0.00 | 82 | 1019.3 |
| 20260507191426 | 63 | 254 | 3.0 | 5.0 | 0.00 | 0.00 | 0.00 | 81 | 1019.3 |
| 20260507190922 | 62 | 245 | 0.0 | 5.0 | 0.00 | 0.00 | 0.00 | 84 | 1019.3 |
| 20260507190420 | 61 | 226 | 1.0 | 4.0 | 0.00 | 0.00 | 0.00 | 83 | 1019.4 |
| 20260507185919 | 62 | 235 | 2.0 | 7.0 | 0.00 | 0.00 | 0.00 | 84 | 1019.4 |
| 20260507185416 | 61 | 246 | 1.0 | 4.0 | 0.00 | 0.00 | 0.00 | 84 | 1019.5 |
| 20260507184913 | 61 | 249 | 4.0 | 4.0 | 0.00 | 0.00 | 0.00 | 83 | 1019.5 |
| 20260507184410 | 59 | 245 | 0.0 | 1.0 | 0.00 | 0.00 | 0.00 | 86 | 1019.5 |
| 20260507183908 | 59 | 263 | 1.0 | 4.0 | 0.00 | 0.00 | 0.00 | 87 | 1019.7 |
| 20260507183404 | 59 | 213 | 0.0 | 3.0 | 0.00 | 0.00 | 0.00 | 87 | 1019.6 |
| 20260507182902 | 58 | 250 | 2.0 | 3.0 | 0.00 | 0.00 | 0.00 | 88 | 1019.7 |
| 20260507182357 | 57 | 249 | 0.0 | 4.0 | 0.00 | 0.00 | 0.00 | 90 | 1019.8 |
| 20260507181854 | 57 | 239 | 2.0 | 4.0 | 0.00 | 0.00 | 0.00 | 91 | 1019.7 |
| 20260507181350 | 57 | 254 | 0.0 | 1.0 | 0.00 | 0.00 | 0.00 | 90 | 1019.8 |
| 20260507180847 | 56 | 254 | 0.0 | 4.0 | 0.00 | 0.00 | 0.00 | 91 | 1019.6 |
| 20260507180344 | 57 | 253 | 4.0 | 5.0 | 0.00 | 0.00 | 0.00 | 88 | 1019.6 |
| 20260507175839 | 57 | 251 | 2.0 | 4.0 | 0.00 | 0.00 | 0.00 | 90 | 1019.6 |
| 20260507175337 | 57 | 250 | 1.0 | 1.0 | 0.00 | 0.00 | 0.00 | 90 | 1019.7 |
| 20260507174834 | 57 | 241 | 1.0 | 3.0 | 0.00 | 0.00 | 0.00 | 92 | 1019.5 |
| 20260507174331 | 56 | 241 | 0.0 | 0.0 | 0.00 | 0.00 | 0.00 | 92 | 1019.7 |
| 20260507173829 | 55 | 241 | 0.0 | 1.0 | 0.00 | 0.00 | 0.00 | 94 | 1019.7 |
| 20260507173326 | 55 | 241 | 0.0 | 1.0 | 0.00 | 0.00 | 0.00 | 95 | 1019.7 |
| 20260507172822 | 54 | 243 | 0.0 | 1.0 | 0.00 | 0.00 | 0.00 | 96 | 1019.7 |
| 20260507172319 | 53 | 243 | 2.0 | 3.0 | 0.00 | 0.00 | 0.00 | 98 | 1019.7 |
| 20260507171814 | 53 | 248 | 0.0 | 1.0 | 0.00 | 0.00 | 0.00 | 99 | 1019.7 |
| 20260507171312 | 53 | 248 | 0.0 | 1.0 | 0.00 | 0.00 | 0.00 | 99 | 1019.7 |
| 20260507170809 | 52 | 254 | 0.0 | 1.0 | 0.00 | 0.00 | 0.00 | 99 | 1019.6 |
| 20260507170305 | 52 | 255 | 0.0 | 5.0 | 0.00 | 0.00 | 0.00 | 99 | 1019.7 |
| 20260507165801 | 52 | 251 | 2.0 | 3.0 | 0.00 | 0.00 | 0.00 | 99 | 1019.6 |
| 20260507165257 | 52 | 250 | 1.0 | 4.0 | 0.00 | 0.00 | 0.00 | 99 | 1019.7 |
| 20260507164753 | 52 | 245 | 0.0 | 3.0 | 0.00 | 0.00 | 0.00 | 99 | 1019.8 |
| 20260507164251 | 52 | 246 | 0.0 | 1.0 | 0.00 | 0.00 | 0.00 | 99 | 1019.8 |
| 20260507163748 | 51 | 261 | 0.0 | 3.0 | 0.00 | 0.00 | 0.00 | 99 | 1019.7 |
| 20260507163246 | 51 | 242 | 0.0 | 1.0 | 0.00 | 0.00 | 0.00 | 99 | 1019.7 |
| 20260507162741 | 51 | 266 | 3.0 | 4.0 | 0.00 | 0.00 | 0.00 | 99 | 1019.7 |
| 20260507162237 | 52 | 261 | 0.0 | 0.0 | 0.00 | 0.00 | 0.00 | 99 | 1019.5 |
| 20260507161734 | 51 | 261 | 0.0 | 0.0 | 0.00 | 0.00 | 0.00 | 99 | 1019.5 |
| 20260507161231 | 51 | 240 | 0.0 | 0.0 | 0.00 | 0.00 | 0.00 | 99 | 1019.6 |
| 20260507160726 | 51 | 264 | 0.0 | 0.0 | 0.00 | 0.00 | 0.00 | 99 | 1019.5 |
| 20260507160223 | 51 | 265 | 0.0 | 0.0 | 0.00 | 0.00 | 0.00 | 99 | 1019.5 |
| 20260507155719 | 51 | 256 | 0.0 | 0.0 | 0.00 | 0.00 | 0.00 | 99 | 1019.5 |
| 20260507155215 | 51 | 246 | 0.0 | 3.0 | 0.00 | 0.00 | 0.00 | 99 | 1019.4 |
| 20260507154712 | 51 | 253 | 0.0 | 1.0 | 0.00 | 0.00 | 0.00 | 99 | 1019.5 |
| 20260507154210 | 51 | 257 | 0.0 | 1.0 | 0.00 | 0.00 | 0.00 | 99 | 1019.5 |
| 20260507153707 | 51 | 253 | 0.0 | 0.0 | 0.00 | 0.00 | 0.00 | 99 | 1019.5 |
| 20260507153203 | 51 | 252 | 0.0 | 1.0 | 0.00 | 0.00 | 0.00 | 99 | 1019.6 |
| 20260507152659 | 51 | 252 | 0.0 | 3.0 | 0.00 | 0.00 | 0.00 | 99 | 1019.5 |
| 20260507152155 | 51 | 266 | 0.0 | 0.0 | 0.00 | 0.00 | 0.00 | 99 | 1019.5 |
| 20260507151651 | 51 | 249 | 0.0 | 0.0 | 0.00 | 0.00 | 0.00 | 99 | 1019.4 |
| 20260507151148 | 51 | 253 | 0.0 | 0.0 | 0.00 | 0.00 | 0.00 | 99 | 1019.6 |
| 20260507150645 | 50 | 240 | 0.0 | 0.0 | 0.00 | 0.00 | 0.00 | 99 | 1019.5 |
| 20260507150142 | 50 | 253 | 0.0 | 0.0 | 0.00 | 0.00 | 0.00 | 99 | 1019.5 |
| 20260507145637 | 51 | 260 | 0.0 | 0.0 | 0.00 | 0.00 | 0.00 | 99 | 1019.5 |
| 20260507145135 | 51 | 259 | 0.0 | 0.0 | 0.00 | 0.00 | 0.00 | 99 | 1019.5 |
| 20260507144631 | 51 | 250 | 0.0 | 0.0 | 0.00 | 0.00 | 0.00 | 99 | 1019.6 |
| 20260507144130 | 51 | 252 | 0.0 | 0.0 | 0.00 | 0.00 | 0.00 | 99 | 1019.5 |
| 20260507143626 | 50 | 259 | 0.0 | 0.0 | 0.00 | 0.00 | 0.00 | 99 | 1019.5 |
| 20260507143123 | 50 | 207 | 0.0 | 1.0 | 0.00 | 0.00 | 0.00 | 99 | 1019.4 |
| 20260507142618 | 50 | 267 | 0.0 | 0.0 | 0.00 | 0.00 | 0.00 | 99 | 1019.3 |
| 20260507142116 | 50 | 242 | 0.0 | 0.0 | 0.00 | 0.00 | 0.00 | 99 | 1019.2 |
| 20260507141612 | 50 | 232 | 0.0 | 1.0 | 0.00 | 0.00 | 0.00 | 99 | 1019.2 |
| 20260507141109 | 51 | 236 | 1.0 | 3.0 | 0.00 | 0.00 | 0.00 | 99 | 1019.1 |
| 20260507140605 | 50 | 245 | 0.0 | 0.0 | 0.00 | 0.00 | 0.00 | 99 | 1019.1 |
| 20260507135559 | 50 | 259 | 3.0 | 4.0 | 0.00 | 0.00 | 0.00 | 99 | 1018.9 |
| 20260507135057 | 50 | 256 | 0.0 | 1.0 | 0.00 | 0.00 | 0.00 | 99 | 1018.9 |
| 20260507134553 | 50 | 256 | 0.0 | 1.0 | 0.00 | 0.00 | 0.00 | 99 | 1019.0 |
| 20260507134049 | 50 | 245 | 0.0 | 0.0 | 0.00 | 0.00 | 0.00 | 99 | 1019.0 |
| 20260507133545 | 50 | 248 | 0.0 | 4.0 | 0.00 | 0.00 | 0.00 | 99 | 1018.9 |
| 20260507133043 | 50 | 244 | 0.0 | 1.0 | 0.00 | 0.00 | 0.00 | 99 | 1018.9 |
| 20260507132540 | 50 | 251 | 0.0 | 0.0 | 0.00 | 0.00 | 0.00 | 99 | 1018.8 |
| 20260507132036 | 50 | 256 | 1.0 | 3.0 | 0.00 | 0.00 | 0.00 | 99 | 1018.8 |
| 20260507131533 | 50 | 257 | 0.0 | 1.0 | 0.00 | 0.00 | 0.00 | 99 | 1018.8 |
| 20260507131030 | 50 | 262 | 0.0 | 0.0 | 0.00 | 0.00 | 0.00 | 99 | 1018.8 |
| 20260507130527 | 50 | 253 | 0.0 | 1.0 | 0.00 | 0.00 | 0.00 | 99 | 1018.7 |
| 20260507130026 | 50 | 242 | 0.0 | 1.0 | 0.00 | 0.00 | 0.00 | 99 | 1018.6 |
| 20260507125524 | 50 | 267 | 0.0 | 1.0 | 0.00 | 0.00 | 0.00 | 99 | 1018.6 |
| 20260507125021 | 50 | 251 | 0.0 | 1.0 | 0.00 | 0.00 | 0.00 | 99 | 1018.7 |
| 20260507124517 | 50 | 255 | 0.0 | 3.0 | 0.00 | 0.00 | 0.00 | 99 | 1018.8 |
| 20260507124015 | 50 | 242 | 0.0 | 0.0 | 0.00 | 0.00 | 0.00 | 99 | 1018.7 |
| 20260507123513 | 50 | 259 | 0.0 | 0.0 | 0.00 | 0.00 | 0.00 | 99 | 1018.7 |
| 20260507123010 | 50 | 259 | 0.0 | 0.0 | 0.00 | 0.00 | 0.00 | 99 | 1018.6 |
| 20260507122504 | 50 | 245 | 0.0 | 4.0 | 0.00 | 0.00 | 0.00 | 99 | 1018.6 |
| 20260507122001 | 50 | 243 | 0.0 | 0.0 | 0.00 | 0.00 | 0.00 | 99 | 1018.6 |
| 20260507121456 | 50 | 242 | 0.0 | 0.0 | 0.00 | 0.00 | 0.00 | 99 | 1018.7 |
| 20260507120953 | 50 | 260 | 0.0 | 0.0 | 0.00 | 0.00 | 0.00 | 99 | 1018.6 |
| 20260507120449 | 50 | 274 | 0.0 | 3.0 | 0.00 | 0.00 | 0.00 | 99 | 1018.6 |
| 20260507115946 | 50 | 257 | 1.0 | 4.0 | 0.00 | 0.00 | 0.00 | 99 | 1018.6 |
| 20260507115442 | 50 | 248 | 0.0 | 1.0 | 0.00 | 0.00 | 0.00 | 99 | 1018.6 |
| 20260507114938 | 50 | 245 | 0.0 | 0.0 | 0.00 | 0.00 | 0.00 | 99 | 1018.8 |
| 20260507114434 | 50 | 242 | 0.0 | 1.0 | 0.00 | 0.00 | 0.00 | 99 | 1018.8 |
| 20260507113932 | 50 | 252 | 0.0 | 1.0 | 0.00 | 0.00 | 0.00 | 99 | 1018.7 |
| 20260507113428 | 50 | 251 | 0.0 | 1.0 | 0.00 | 0.00 | 0.00 | 99 | 1018.7 |
| 20260507112926 | 50 | 250 | 1.0 | 3.0 | 0.00 | 0.00 | 0.00 | 99 | 1018.8 |
| 20260507112423 | 50 | 245 | 3.0 | 4.0 | 0.00 | 0.00 | 0.00 | 99 | 1018.8 |
| 20260507111920 | 51 | 244 | 0.0 | 1.0 | 0.00 | 0.00 | 0.00 | 99 | 1018.9 |
| 20260507111418 | 50 | 244 | 0.0 | 3.0 | 0.00 | 0.00 | 0.00 | 99 | 1018.8 |
| 20260507110914 | 50 | 259 | 2.0 | 3.0 | 0.00 | 0.00 | 0.00 | 99 | 1019.0 |
| 20260507110410 | 50 | 262 | 0.0 | 0.0 | 0.00 | 0.00 | 0.00 | 99 | 1018.9 |
| 20260507105907 | 50 | 272 | 1.0 | 3.0 | 0.00 | 0.00 | 0.00 | 99 | 1018.9 |
| 20260507105403 | 50 | 248 | 0.0 | 0.0 | 0.00 | 0.00 | 0.00 | 99 | 1019.0 |
| 20260507104900 | 51 | 247 | 1.0 | 4.0 | 0.00 | 0.00 | 0.00 | 99 | 1018.9 |
| 20260507104357 | 51 | 245 | 0.0 | 0.0 | 0.00 | 0.00 | 0.00 | 99 | 1018.9 |
| 20260507103853 | 51 | 217 | 1.0 | 3.0 | 0.00 | 0.00 | 0.00 | 99 | 1018.9 |
| 20260507103350 | 51 | 262 | 0.0 | 0.0 | 0.00 | 0.00 | 0.00 | 99 | 1019.0 |
| 20260507102846 | 51 | 265 | 1.0 | 3.0 | 0.00 | 0.00 | 0.00 | 99 | 1019.0 |
| 20260507102342 | 51 | 244 | 0.0 | 1.0 | 0.00 | 0.00 | 0.00 | 99 | 1019.0 |
| 20260507101839 | 51 | 240 | 0.0 | 4.0 | 0.00 | 0.00 | 0.00 | 99 | 1019.0 |
| 20260507101333 | 51 | 266 | 0.0 | 1.0 | 0.00 | 0.00 | 0.00 | 99 | 1019.2 |
| 20260507100831 | 51 | 266 | 0.0 | 0.0 | 0.00 | 0.00 | 0.00 | 99 | 1019.1 |
| 20260507100328 | 51 | 266 | 0.0 | 0.0 | 0.00 | 0.00 | 0.00 | 99 | 1019.1 |
| 20260507095826 | 51 | 266 | 0.0 | 0.0 | 0.00 | 0.00 | 0.00 | 99 | 1019.1 |
| 20260507095322 | 51 | 266 | 0.0 | 3.0 | 0.00 | 0.00 | 0.00 | 99 | 1019.1 |
| 20260507094820 | 51 | 261 | 0.0 | 0.0 | 0.00 | 0.00 | 0.00 | 99 | 1019.1 |
| 20260507094316 | 51 | 261 | 0.0 | 0.0 | 0.00 | 0.00 | 0.00 | 99 | 1019.2 |
| 20260507093813 | 51 | 262 | 2.0 | 3.0 | 0.00 | 0.00 | 0.00 | 99 | 1019.1 |
| 20260507093312 | 51 | 265 | 0.0 | 1.0 | 0.00 | 0.00 | 0.00 | 99 | 1019.1 |
| 20260507092809 | 51 | 234 | 0.0 | 0.0 | 0.00 | 0.00 | 0.00 | 99 | 1019.1 |
| 20260507092307 | 51 | 263 | 0.0 | 0.0 | 0.00 | 0.00 | 0.00 | 99 | 1019.1 |
| 20260507091802 | 51 | 280 | 0.0 | 0.0 | 0.00 | 0.00 | 0.00 | 99 | 1019.3 |
| 20260507091259 | 51 | 294 | 0.0 | 1.0 | 0.00 | 0.00 | 0.00 | 99 | 1019.4 |
| 20260507090759 | 51 | 243 | 1.0 | 1.0 | 0.00 | 0.00 | 0.00 | 99 | 1019.3 |
| 20260507090256 | 51 | 242 | 0.0 | 0.0 | 0.00 | 0.00 | 0.00 | 99 | 1019.4 |
| 20260507085753 | 51 | 269 | 0.0 | 4.0 | 0.00 | 0.00 | 0.00 | 99 | 1019.3 |
| 20260507085249 | 51 | 270 | 1.0 | 1.0 | 0.00 | 0.00 | 0.00 | 99 | 1019.3 |
| 20260507084747 | 51 | 253 | 0.0 | 0.0 | 0.00 | 0.00 | 0.00 | 99 | 1019.4 |
| 20260507084243 | 51 | 253 | 0.0 | 1.0 | 0.00 | 0.00 | 0.00 | 99 | 1019.4 |
| 20260507083741 | 51 | 245 | 3.0 | 4.0 | 0.00 | 0.00 | 0.00 | 99 | 1019.3 |
| 20260507083237 | 51 | 256 | 1.0 | 4.0 | 0.00 | 0.00 | 0.00 | 99 | 1019.5 |
| 20260507082733 | 51 | 258 | 0.0 | 3.0 | 0.00 | 0.00 | 0.00 | 99 | 1019.3 |
| 20260507082229 | 51 | 264 | 0.0 | 0.0 | 0.00 | 0.00 | 0.00 | 99 | 1019.4 |
| 20260507081726 | 51 | 259 | 0.0 | 0.0 | 0.00 | 0.00 | 0.00 | 99 | 1019.4 |
| 20260507081222 | 51 | 263 | 0.0 | 0.0 | 0.00 | 0.00 | 0.00 | 99 | 1019.3 |
| 20260507080719 | 51 | 250 | 0.0 | 0.0 | 0.00 | 0.00 | 0.00 | 99 | 1019.5 |
| 20260507080215 | 51 | 266 | 0.0 | 0.0 | 0.00 | 0.00 | 0.00 | 99 | 1019.5 |
| 20260507075711 | 51 | 266 | 0.0 | 0.0 | 0.00 | 0.00 | 0.00 | 99 | 1019.5 |
| 20260507075207 | 51 | 255 | 0.0 | 0.0 | 0.00 | 0.00 | 0.00 | 99 | 1019.6 |
| 20260507074703 | 51 | 243 | 0.0 | 0.0 | 0.00 | 0.00 | 0.00 | 99 | 1019.5 |
| 20260507074202 | 51 | 272 | 2.0 | 3.0 | 0.00 | 0.00 | 0.00 | 99 | 1019.5 |
| 20260507073658 | 51 | 222 | 0.0 | 0.0 | 0.00 | 0.00 | 0.00 | 99 | 1019.4 |
| 20260507073154 | 51 | 259 | 1.0 | 3.0 | 0.00 | 0.00 | 0.00 | 99 | 1019.5 |
| 20260507072653 | 51 | 193 | 3.0 | 4.0 | 0.00 | 0.00 | 0.00 | 99 | 1019.5 |
| 20260507072150 | 51 | 235 | 0.0 | 0.0 | 0.00 | 0.00 | 0.00 | 99 | 1019.3 |
| 20260507071648 | 51 | 258 | 0.0 | 4.0 | 0.00 | 0.00 | 0.00 | 99 | 1019.5 |
| 20260507071144 | 51 | 258 | 0.0 | 3.0 | 0.00 | 0.00 | 0.00 | 99 | 1019.4 |
| 20260507070641 | 51 | 238 | 0.0 | 3.0 | 0.00 | 0.00 | 0.00 | 99 | 1019.4 |
| 20260507070137 | 51 | 244 | 3.0 | 4.0 | 0.00 | 0.00 | 0.00 | 99 | 1019.4 |
| 20260507065633 | 51 | 218 | 2.0 | 3.0 | 0.00 | 0.00 | 0.00 | 99 | 1019.3 |
| 20260507065130 | 51 | 249 | 1.0 | 1.0 | 0.00 | 0.00 | 0.00 | 99 | 1019.3 |
| 20260507064628 | 51 | 229 | 0.0 | 5.0 | 0.00 | 0.00 | 0.00 | 99 | 1019.3 |
| 20260507064127 | 51 | 265 | 0.0 | 3.0 | 0.00 | 0.00 | 0.00 | 99 | 1019.2 |
| 20260507063624 | 51 | 254 | 0.0 | 3.0 | 0.00 | 0.00 | 0.00 | 99 | 1019.2 |
| 20260507063121 | 51 | 230 | 0.0 | 1.0 | 0.00 | 0.00 | 0.00 | 99 | 1019.2 |
| 20260507062617 | 51 | 246 | 3.0 | 4.0 | 0.00 | 0.00 | 0.00 | 99 | 1019.2 |
| 20260507062115 | 51 | 223 | 2.0 | 7.0 | 0.00 | 0.00 | 0.00 | 99 | 1019.3 |
| 20260507061613 | 51 | 193 | 0.0 | 4.0 | 0.00 | 0.00 | 0.00 | 98 | 1019.2 |
| 20260507061111 | 51 | 255 | 3.0 | 5.0 | 0.00 | 0.00 | 0.00 | 98 | 1019.3 |
| 20260507060608 | 52 | 256 | 2.0 | 4.0 | 0.00 | 0.00 | 0.00 | 98 | 1019.3 |
| 20260507060104 | 52 | 259 | 0.0 | 4.0 | 0.00 | 0.00 | 0.00 | 98 | 1019.3 |
| 20260507055559 | 52 | 252 | 1.0 | 3.0 | 0.00 | 0.00 | 0.00 | 98 | 1019.2 |
| 20260507055056 | 52 | 280 | 3.0 | 7.0 | 0.00 | 0.00 | 0.00 | 98 | 1019.1 |
| 20260507054552 | 52 | 237 | 2.0 | 5.0 | 0.00 | 0.00 | 0.00 | 98 | 1019.1 |
| 20260507054049 | 52 | 205 | 0.0 | 7.0 | 0.00 | 0.00 | 0.00 | 98 | 1019.0 |
| 20260507053547 | 52 | 256 | 2.0 | 5.0 | 0.00 | 0.00 | 0.00 | 98 | 1019.0 |
| 20260507053046 | 52 | 234 | 1.0 | 7.0 | 0.00 | 0.00 | 0.00 | 97 | 1019.2 |
| 20260507052543 | 52 | 246 | 3.0 | 4.0 | 0.00 | 0.00 | 0.00 | 97 | 1019.1 |
| 20260507052039 | 52 | 244 | 0.0 | 4.0 | 0.00 | 0.00 | 0.00 | 97 | 1019.1 |
| 20260507051537 | 52 | 261 | 1.0 | 3.0 | 0.00 | 0.00 | 0.00 | 97 | 1019.2 |
| 20260507051034 | 52 | 242 | 1.0 | 3.0 | 0.00 | 0.00 | 0.00 | 97 | 1019.2 |
| 20260507050530 | 52 | 246 | 2.0 | 7.0 | 0.00 | 0.00 | 0.00 | 97 | 1019.1 |
| 20260507050027 | 52 | 266 | 2.0 | 4.0 | 0.00 | 0.00 | 0.00 | 97 | 1019.2 |
| 20260507045523 | 52 | 251 | 1.0 | 3.0 | 0.00 | 0.00 | 0.00 | 97 | 1019.2 |
| 20260507045021 | 53 | 240 | 1.0 | 3.0 | 0.00 | 0.00 | 0.00 | 97 | 1019.2 |
| 20260507044518 | 53 | 259 | 4.0 | 5.0 | 0.00 | 0.00 | 0.00 | 97 | 1019.2 |
| 20260507044014 | 53 | 214 | 0.0 | 3.0 | 0.00 | 0.00 | 0.00 | 97 | 1019.1 |
| 20260507043510 | 53 | 158 | 1.0 | 5.0 | 0.00 | 0.00 | 0.00 | 96 | 1019.0 |
| 20260507043008 | 53 | 264 | 1.0 | 1.0 | 0.00 | 0.00 | 0.00 | 96 | 1019.0 |
| 20260507042503 | 53 | 205 | 0.0 | 1.0 | 0.00 | 0.00 | 0.00 | 96 | 1019.0 |
| 20260507041959 | 53 | 258 | 2.0 | 3.0 | 0.00 | 0.00 | 0.00 | 96 | 1019.0 |
| 20260507041456 | 53 | 226 | 1.0 | 5.0 | 0.00 | 0.00 | 0.00 | 96 | 1019.0 |
| 20260507040953 | 53 | 253 | 0.0 | 3.0 | 0.00 | 0.00 | 0.00 | 96 | 1019.0 |
| 20260507040449 | 53 | 244 | 0.0 | 3.0 | 0.00 | 0.00 | 0.00 | 96 | 1019.0 |
| 20260507035945 | 53 | 246 | 0.0 | 1.0 | 0.00 | 0.00 | 0.00 | 96 | 1019.0 |
| 20260507035442 | 53 | 279 | 3.0 | 5.0 | 0.00 | 0.00 | 0.00 | 96 | 1019.0 |
| 20260507034938 | 53 | 252 | 1.0 | 5.0 | 0.00 | 0.00 | 0.00 | 96 | 1019.1 |
| 20260507034435 | 53 | 283 | 2.0 | 4.0 | 0.00 | 0.00 | 0.00 | 96 | 1019.1 |
| 20260507033934 | 53 | 242 | 1.0 | 4.0 | 0.00 | 0.00 | 0.00 | 96 | 1019.0 |
| 20260507033431 | 53 | 178 | 1.0 | 3.0 | 0.00 | 0.00 | 0.00 | 96 | 1019.0 |
| 20260507032928 | 53 | 258 | 0.0 | 4.0 | 0.00 | 0.00 | 0.00 | 95 | 1019.0 |
| 20260507032425 | 53 | 245 | 1.0 | 4.0 | 0.00 | 0.00 | 0.00 | 95 | 1019.1 |
| 20260507031921 | 54 | 234 | 1.0 | 3.0 | 0.00 | 0.00 | 0.00 | 94 | 1019.1 |
| 20260507031417 | 54 | 219 | 1.0 | 3.0 | 0.00 | 0.00 | 0.00 | 93 | 1019.0 |
| 20260507030914 | 55 | 285 | 0.0 | 4.0 | 0.00 | 0.00 | 0.00 | 93 | 1019.0 |
| 20260507030412 | 55 | 260 | 0.0 | 1.0 | 0.00 | 0.00 | 0.00 | 91 | 1019.0 |
| 20260507025908 | 56 | 250 | 0.0 | 0.0 | 0.00 | 0.00 | 0.00 | 90 | 1019.0 |
| 20260507025406 | 56 | 265 | 0.0 | 1.0 | 0.00 | 0.00 | 0.00 | 90 | 1018.9 |
| 20260507024904 | 56 | 239 | 0.0 | 5.0 | 0.00 | 0.00 | 0.00 | 89 | 1018.9 |
| 20260507024400 | 57 | 243 | 1.0 | 4.0 | 0.00 | 0.00 | 0.00 | 88 | 1018.8 |
| 20260507023856 | 57 | 261 | 0.0 | 1.0 | 0.00 | 0.00 | 0.00 | 88 | 1018.8 |
| 20260507023353 | 58 | 236 | 1.0 | 4.0 | 0.00 | 0.00 | 0.00 | 87 | 1018.7 |
| 20260507022851 | 58 | 230 | 3.0 | 4.0 | 0.00 | 0.00 | 0.00 | 86 | 1018.6 |
| 20260507022347 | 59 | 227 | 2.0 | 5.0 | 0.00 | 0.00 | 0.00 | 86 | 1018.7 |
| 20260507021843 | 60 | 247 | 1.0 | 3.0 | 0.00 | 0.00 | 0.00 | 83 | 1018.7 |
| 20260507021338 | 60 | 244 | 1.0 | 4.0 | 0.00 | 0.00 | 0.00 | 83 | 1018.7 |
| 20260507020837 | 60 | 262 | 0.0 | 3.0 | 0.00 | 0.00 | 0.00 | 83 | 1018.9 |
| 20260507020333 | 61 | 252 | 3.0 | 7.0 | 0.00 | 0.00 | 0.00 | 82 | 1018.8 |
| 20260507015830 | 61 | 267 | 1.0 | 5.0 | 0.00 | 0.00 | 0.00 | 82 | 1019.0 |
| 20260507015328 | 62 | 156 | 0.0 | 1.0 | 0.00 | 0.00 | 0.00 | 80 | 1018.9 |
| 20260507014825 | 62 | 237 | 3.0 | 5.0 | 0.00 | 0.00 | 0.00 | 80 | 1018.9 |
| 20260507014321 | 64 | 251 | 1.0 | 3.0 | 0.00 | 0.00 | 0.00 | 77 | 1018.9 |
| 20260507013818 | 63 | 265 | 4.0 | 4.0 | 0.00 | 0.00 | 0.00 | 77 | 1018.9 |
| 20260507013315 | 64 | 232 | 2.0 | 3.0 | 0.00 | 0.00 | 0.00 | 77 | 1018.9 |
| 20260507012813 | 64 | 244 | 0.0 | 3.0 | 0.00 | 0.00 | 0.00 | 77 | 1018.9 |
| 20260507012308 | 65 | 236 | 3.0 | 4.0 | 0.00 | 0.00 | 0.00 | 76 | 1019.0 |
| 20260507011806 | 65 | 244 | 2.0 | 3.0 | 0.00 | 0.00 | 0.00 | 75 | 1019.0 |
| 20260507011302 | 65 | 238 | 0.0 | 1.0 | 0.00 | 0.00 | 0.00 | 76 | 1019.1 |
| 20260507010801 | 63 | 271 | 3.0 | 10.0 | 0.00 | 0.00 | 0.00 | 79 | 1019.1 |
| 20260507010258 | 63 | 245 | 8.0 | 12.0 | 0.00 | 0.00 | 0.00 | 79 | 1019.0 |
| 20260507005755 | 63 | 257 | 4.0 | 10.0 | 0.00 | 0.00 | 0.00 | 79 | 1019.0 |
| 20260507005251 | 63 | 247 | 10.0 | 12.0 | 0.00 | 0.00 | 0.00 | 78 | 1018.9 |
| 20260507004748 | 66 | 248 | 4.0 | 8.0 | 0.00 | 0.00 | 0.00 | 75 | 1019.0 |
| 20260507004246 | 64 | 244 | 2.0 | 4.0 | 0.00 | 0.00 | 0.00 | 77 | 1018.9 |
| 20260507003742 | 65 | 264 | 6.0 | 7.0 | 0.00 | 0.00 | 0.00 | 76 | 1018.9 |
| 20260507003237 | 64 | 273 | 8.0 | 10.0 | 0.00 | 0.00 | 0.00 | 75 | 1018.9 |
| 20260507002734 | 64 | 248 | 8.0 | 11.0 | 0.00 | 0.00 | 0.00 | 78 | 1018.9 |
| 20260507002230 | 64 | 244 | 10.0 | 12.0 | 0.00 | 0.00 | 0.00 | 77 | 1019.0 |
| 20260507001727 | 65 | 264 | 8.0 | 10.0 | 0.00 | 0.00 | 0.00 | 75 | 1019.0 |
| 20260507001224 | 64 | 267 | 4.0 | 12.0 | 0.00 | 0.00 | 0.00 | 78 | 1019.0 |
| 20260507000720 | 65 | 260 | 6.0 | 8.0 | 0.00 | 0.00 | 0.00 | 75 | 1018.9 |
| 20260507000216 | 65 | 275 | 7.0 | 8.0 | 0.00 | 0.00 | 0.00 | 75 | 1018.9 |
| 20260506235713 | 65 | 233 | 5.0 | 14.0 | 0.00 | 0.00 | 0.00 | 77 | 1018.9 |
| 20260506235208 | 65 | 257 | 9.0 | 14.0 | 0.00 | 0.00 | 0.00 | 75 | 1019.0 |
| 20260506234706 | 66 | 247 | 2.0 | 7.0 | 0.00 | 0.00 | 0.00 | 77 | 1019.0 |
| 20260506234203 | 66 | 242 | 3.0 | 11.0 | 0.00 | 0.00 | 0.00 | 77 | 1019.0 |
| 20260506233700 | 66 | 247 | 10.0 | 12.0 | 0.00 | 0.00 | 0.00 | 75 | 1019.0 |
| 20260506233157 | 66 | 250 | 9.0 | 11.0 | 0.00 | 0.00 | 0.00 | 75 | 1019.1 |
| 20260506232653 | 66 | 267 | 3.0 | 8.0 | 0.00 | 0.00 | 0.00 | 75 | 1019.0 |
| 20260506232148 | 69 | 235 | 5.0 | 7.0 | 0.00 | 0.00 | 0.00 | 70 | 1018.9 |
| 20260506231646 | 68 | 258 | 5.0 | 8.0 | 0.00 | 0.00 | 0.00 | 73 | 1019.0 |
| 20260506231144 | 67 | 238 | 8.0 | 10.0 | 0.00 | 0.00 | 0.00 | 74 | 1019.2 |
| 20260506230641 | 67 | 270 | 4.0 | 10.0 | 0.00 | 0.00 | 0.00 | 75 | 1019.2 |
| 20260506230137 | 68 | 254 | 8.0 | 10.0 | 0.00 | 0.00 | 0.00 | 73 | 1019.2 |
| 20260506225634 | 68 | 251 | 4.0 | 12.0 | 0.00 | 0.00 | 0.00 | 74 | 1019.2 |
| 20260506225131 | 68 | 259 | 8.0 | 12.0 | 0.00 | 0.00 | 0.00 | 74 | 1019.3 |
| 20260506224627 | 68 | 245 | 5.0 | 8.0 | 0.00 | 0.00 | 0.00 | 74 | 1019.2 |
| 20260506224124 | 68 | 250 | 5.0 | 11.0 | 0.00 | 0.00 | 0.00 | 74 | 1019.3 |
| 20260506223620 | 67 | 250 | 5.0 | 10.0 | 0.00 | 0.00 | 0.00 | 75 | 1019.4 |
| 20260506223116 | 68 | 255 | 5.0 | 10.0 | 0.00 | 0.00 | 0.00 | 73 | 1019.5 |
| 20260506222614 | 70 | 251 | 2.0 | 4.0 | 0.00 | 0.00 | 0.00 | 73 | 1019.7 |
| 20260506222109 | 68 | 255 | 5.0 | 5.0 | 0.00 | 0.00 | 0.00 | 74 | 1019.6 |
| 20260506221608 | 68 | 247 | 5.0 | 8.0 | 0.00 | 0.00 | 0.00 | 73 | 1019.7 |
| 20260506221106 | 67 | 247 | 3.0 | 11.0 | 0.00 | 0.00 | 0.00 | 77 | 1019.6 |